Location: Castelbiague
(43.0361°N, 0.9246°E)
Time: 20:42:41
(UTC+00:00)

FENGYUN 1C DEB - Visible Passes

Search period start: 21 January 2022 00:00
Search period end: 31 January 2022 00:00
Orbit: 840 x 966 km, 99.4° (Epoch: 21 January)

Date Brightness Start Highest point End Pass type
(mag) Time Alt. Az. Time Alt. Az. Time Alt. Az.
21 Jan ? 18:54:07 10° S 19:00:06 58° WSW 19:06:05 10° NNW visible
22 Jan ? 18:57:40 10° S 19:03:37 54° W 19:09:33 10° NNW visible
23 Jan ? 17:20:44 10° ESE 17:25:45 28° ENE 17:30:46 10° N visible
23 Jan ? 19:01:13 10° S 19:07:08 51° W 19:13:02 10° NNW visible
24 Jan ? 17:24:05 10° ESE 17:29:14 30° ENE 17:34:20 10° N visible
24 Jan ? 19:04:48 10° S 19:10:38 48° W 19:16:29 10° NNW visible
25 Jan ? 05:55:50 10° ENE 05:57:00 11° E 05:58:09 10° E visible
25 Jan ? 17:27:27 10° ESE 17:32:42 31° ENE 17:37:53 10° N visible
25 Jan ? 19:08:22 10° S 19:14:09 45° W 19:19:56 10° NNW visible
26 Jan ? 05:58:44 10° ENE 06:00:32 11° E 06:02:20 10° ESE visible
26 Jan ? 17:30:50 10° SE 17:36:09 33° ENE 17:41:26 10° N visible
26 Jan ? 19:11:58 10° S 19:17:41 42° W 19:23:23 10° NNW visible
27 Jan ? 06:01:49 10° ENE 06:04:04 12° E 06:06:19 10° ESE visible
27 Jan ? 17:34:13 10° SE 17:39:38 35° ENE 17:44:59 10° N visible
27 Jan ? 19:15:33 10° SSW 19:21:12 40° W 19:26:49 10° NNW visible
28 Jan ? 06:04:58 10° ENE 06:07:37 13° E 06:10:12 10° ESE visible
28 Jan ? 17:37:38 10° SE 17:43:06 37° ENE 17:48:30 10° N visible
28 Jan ? 19:19:08 10° SSW 19:24:43 37° W 19:30:15 10° NNW visible
29 Jan ? 06:08:12 10° ENE 06:11:09 14° E 06:14:02 10° ESE visible
29 Jan ? 17:41:01 10° SE 17:46:34 39° ENE 17:52:02 10° N visible
29 Jan ? 19:22:45 10° SSW 19:28:14 35° W 19:33:41 10° NNW visible
30 Jan ? 06:11:28 10° NE 06:14:40 15° E 06:17:49 10° SE visible
30 Jan ? 17:44:25 10° SE 17:50:02 41° ENE 17:55:34 10° N visible
30 Jan ? 19:26:22 10° SSW 19:31:45 33° W 19:37:06 10° NNW visible
